Location: Maccacari
(45.1333°N, 11.1333°E)
Time: 01:52:28
(UTC+00:00)

A-11 Canister half - Pass Details

Date: 28 January 2021
Orbit: 1525 x 1684 km, 47.3° (Epoch: 07 March)

Event Time Altitude Azimuth Distance (km) Brightness Sun altitude
Rises 10:57:13 0° 195° (SSW) 4,662 12.6 26.4°
Reaches altitude 10° 11:00:50 10° 184° (S) 3,680 12.7 26.5°
Maximum altitude 11:08:08 27° 131° (SE) 2,606 11.2 26.6°
Drops below altitude 10° 11:15:30 10° 79° (E) 3,727 11.0 26.7°
Sets 11:19:10 0° 68° (ENE) 4,733 11.4 26.8°
